Latest Coastal Weather Observations for Point Perpendicular

IDN60701

Issued at 10:11 am EST Tuesday 31 May 2016 (issued every 10 minutes, with the page automatically refreshed every 10 minutes)

About coastal observations | Map of coastal stations | Coastal observations for NSW | Marine services | Other Formats
Station Details ID: 068151 Name: POINT PERPENDICULAR AWS Lat: -35.09 Lon: 150.80 Height: 85.0 m
Data from the previous 72 hours. | See also: Recent months at Point Perpendicular
Date/Time
EST
Temp

°C
Wind Pressure Rain
since 9am
mm
Weather Cloud Vis
km
Sea
Height
m
Swell
Dir
 
Speed
knots
Gust
knots
hPa Trend Height
m
Period
s
Dir
31/10:00am 13.7 - - - 1030.0 - 3.8 - - - - - - -
31/09:30am 13.8 - - - 1029.9 - 0.8 - - - - - - -
31/09:00am 13.5 - - - 1029.8 - 19.0 - - - - - - -
31/08:30am 13.3 - - - 1029.5 - 19.0 - - - - - - -
31/08:00am 12.9 - - - 1029.2 - 19.0 - - - - - - -
31/07:30am 12.6 - - - 1028.6 - 18.4 - - - - - - -
31/07:00am 13.4 - - - 1028.9 - 16.8 - - - - - - -
31/06:30am 12.9 - - - 1028.7 - 14.0 - - - - - - -
31/06:00am 13.6 - - - 1028.0 - 4.8 - - - - - - -
31/05:30am 13.2 - - - 1027.6 - 4.8 - - - - - - -
31/05:00am 13.3 - - - 1027.4 - 4.8 - - - - - - -
31/04:30am 13.2 - - - 1027.3 - 4.8 - - - - - - -
31/04:00am 13.7 - - - 1027.3 - 4.6 - - - - - - -
31/03:30am 13.2 - - - 1027.1 - 4.4 - - - - - - -
31/03:00am 13.3 - - - 1027.3 - 4.4 Recent precip. - - - - - -
31/02:30am 13.7 - - - 1027.4 - 4.2 - - - - - - -
31/02:00am 13.0 - - - 1027.5 - 4.0 - - - - - - -
31/01:30am 12.8 - - - 1027.5 - 4.0 - - - - - - -
31/01:00am 13.3 - - - 1027.5 - 3.6 - - - - - - -
31/12:30am 13.5 - - - 1027.5 - 2.0 - - - - - - -
31/12:00am 13.4 - - - 1027.7 - 2.0 Recent precip. - - - - - -
 
Date/Time
EST
Temp

°C
Wind Pressure Rain
since 9am
mm
Weather Cloud Vis
km
Sea
Height
m
Swell
Dir
 
Speed
knots
Gust
knots
hPa Trend Height
m
Period
s
Dir
30/11:30pm 13.5 - - - 1027.9 - 2.0 - - - - - - -
30/11:00pm 13.3 - - - 1027.7 - 1.8 - - - - - - -
30/10:30pm 13.3 - - - 1027.6 - 1.6 - - - - - - -
30/10:00pm 13.6 - - - 1027.5 - 1.2 - - - - - - -
30/09:30pm 13.5 - - - 1027.5 - 0.2 - - - - - - -
30/09:00pm 14.7 - - - 1027.0 - 0.0 - - - - - - -
30/08:30pm 16.0 - - - 1026.5 - 0.0 - - - - - - -
30/08:00pm 15.9 - - - 1026.7 - 0.0 - - - - - - -
30/07:30pm 15.8 - - - 1026.2 - 0.0 - - - - - - -
30/07:00pm 15.9 - - - 1025.8 - 0.0 - - - - - - -
30/06:30pm 16.0 - - - 1025.8 - 0.0 - - - - - - -
30/06:00pm 15.8 - - - 1025.6 - 0.0 - - - - - - -
30/05:30pm 15.6 - - - 1025.2 - 0.0 - - - - - - -
30/05:00pm 15.6 - - - 1025.1 - 0.0 - - - - - - -
30/04:30pm 15.3 - - - 1024.9 - 0.0 - - - - - - -
30/04:00pm 15.2 - - - 1024.8 - 0.0 - - - - - - -
30/03:30pm 15.7 - - - 1024.6 - 0.0 - - - - - - -
30/03:00pm 15.6 - - - 1024.4 - 0.0 - - - - - - -
30/02:30pm 15.1 - - - 1024.5 - 0.0 - - - - - - -
30/02:00pm 15.1 - - - 1024.3 - 0.0 - - - - - - -
30/01:30pm 15.1 - - - 1024.4 - 0.0 - - - - - - -
30/01:00pm 15.0 - - - 1024.4 - 0.0 - - - - - - -
30/12:30pm 14.8 - - - 1024.5 - 0.0 - - - - - - -
30/12:00pm 15.2 - - - 1024.6 - 0.0 - - - - - - -
30/11:30am 14.6 - - - 1025.0 - 0.0 - - - - - - -
30/11:00am 14.7 - - - 1025.1 - 0.0 - - - - - - -
30/10:30am 14.5 - - - 1025.4 - 0.0 - - - - - - -
30/10:00am 13.7 - - - 1025.5 - 0.0 - - - - - - -
30/09:30am 12.5 - - - 1025.4 - 0.0 - - - - - - -
30/09:00am 12.0 - - - 1025.1 - 0.0 - - - - - - -
30/08:30am 11.0 - - - 1024.8 - 0.0 - - - - - - -
30/08:00am 9.9 - - - 1024.5 - 0.0 - - - - - - -
30/07:30am 9.1 - - - 1024.2 - 0.0 - - - - - - -
30/07:00am 8.7 - - - 1024.0 - 0.0 - - - - - - -
30/06:30am 8.8 - - - 1023.6 - 0.0 - - - - - - -
30/06:00am 8.4 - - - 1023.2 - 0.0 - - - - - - -
30/05:30am 8.2 - - - 1022.7 - 0.0 - - - - - - -
30/05:00am 8.7 - - - 1022.4 - 0.0 - - - - - - -
30/04:30am 8.9 - - - 1022.2 - 0.0 - - - - - - -
30/04:00am 8.9 - - - 1022.0 - 0.0 - - - - - - -
30/03:30am 8.9 - - - 1021.7 - 0.0 - - - - - - -
30/03:00am 9.1 - - - 1021.6 - 0.0 - - - - - - -
30/02:30am 9.5 - - - 1021.7 - 0.0 - - - - - - -
30/02:00am 9.4 - - - 1021.5 - 0.0 - - - - - - -
30/01:30am 9.7 - - - 1021.2 - 0.0 - - - - - - -
30/01:00am 9.8 - - - 1020.9 - 0.0 - - - - - - -
30/12:30am 9.9 - - - 1020.8 - 0.0 - - - - - - -
30/12:00am 10.1 - - - 1020.7 - 0.0 - - - - - - -
 
Date/Time
EST
Temp

°C
Wind Pressure Rain
since 9am
mm
Weather Cloud Vis
km
Sea
Height
m
Swell
Dir
 
Speed
knots
Gust
knots
hPa Trend Height
m
Period
s
Dir
29/11:30pm 10.3 - - - 1020.9 - 0.0 - - - - - - -
29/11:00pm 10.6 - - - 1020.9 - 0.0 - - - - - - -
29/10:30pm 10.7 - - - 1020.8 - 0.0 - - - - - - -
29/10:00pm 11.0 - - - 1020.7 - 0.0 - - - - - - -
29/09:30pm 11.3 - - - 1020.4 - 0.0 - - - - - - -
29/09:00pm 11.5 - - - 1020.0 - 0.0 - - - - - - -
29/08:30pm 12.0 - - - 1019.9 - 0.0 - - - - - - -
29/08:00pm 12.1 - - - 1019.5 - 0.0 - - - - - - -
29/07:30pm 12.4 - - - 1019.1 - 0.0 - - - - - - -
29/07:00pm 13.1 - - - 1018.8 - 0.0 - - - - - - -
29/06:30pm 13.8 - - - 1018.3 - 0.0 - - - - - - -
29/06:00pm 14.3 - - - 1018.0 - 0.0 - - - - - - -
29/05:30pm 13.8 - - - 1017.7 - 0.0 - - - - - - -
29/05:00pm 12.8 - - - 1017.4 - 0.0 - - - - - - -
29/04:30pm 14.5 - - - 1017.0 - 0.0 - - - - - - -
29/04:00pm 16.1 - - - 1016.8 - 0.0 - - - - - - -
29/03:30pm 16.2 - - - 1016.7 - 0.0 - - - - - - -
29/03:00pm 16.4 - - - 1016.5 - 0.0 - - - - - - -
29/02:30pm 16.3 - - - 1016.3 - 0.0 - - - - - - -
29/02:00pm 16.2 - - - 1016.2 - 0.0 - - - - - - -
29/01:30pm 15.8 - - - 1015.9 - 0.0 - - - - - - -
29/01:00pm 15.6 - - - 1016.0 - 0.0 - - - - - - -
29/12:30pm 15.2 - - - 1016.2 - 0.0 - - - - - - -
29/12:00pm 14.7 - - - 1016.3 - 0.0 - - - - - - -
29/11:30am 14.6 - - - 1016.5 - 0.0 - - - - - - -
29/11:00am 14.0 - - - 1016.7 - 0.0 - - - - - - -
29/10:30am 13.5 - - - 1016.8 - 0.0 - - - - - - -
29/10:00am 12.7 - - - 1016.8 - 0.0 - - - - - - -
29/09:30am 12.2 - - - 1016.5 - 0.0 - - - - - - -
29/09:00am 11.6 - - - 1016.2 - 0.0 - - - - - - -
29/08:30am 11.4 - - - 1015.9 - 0.0 - - - - - - -
29/08:00am 10.8 - - - 1015.6 - 0.0 - - - - - - -
29/07:30am 10.7 - - - 1015.2 - 0.0 - - - - - - -
29/07:00am 9.5 - - - 1014.9 - 0.0 - - - - - - -
29/06:30am 10.2 - - - 1014.6 - 0.0 - - - - - - -
29/06:00am 10.2 - - - 1014.4 - 0.0 - - - - - - -
29/05:30am 10.6 - - - 1014.1 - 0.0 - - - - - - -
29/05:00am 10.6 - - - 1013.8 - 0.0 - - - - - - -
29/04:30am 10.4 - - - 1013.4 - 0.0 - - - - - - -
29/04:00am 10.9 - - - 1013.4 - 0.0 - - - - - - -
29/03:30am 11.0 - - - 1013.2 - 0.0 - - - - - - -
29/03:00am 11.2 - - - 1013.1 - 0.0 - - - - - - -
29/02:30am 11.2 - - - 1012.9 - 0.0 - - - - - - -
29/02:00am 11.3 - - - 1012.7 - 0.0 - - - - - - -
29/01:30am 11.8 - - - 1012.6 - 0.0 - - - - - - -
29/01:00am 12.1 - - - 1012.2 - 0.0 - - - - - - -
29/12:30am 12.3 - - - 1011.9 - 0.0 - - - - - - -
29/12:00am 12.2 - - - 1011.7 - 0.0 - - - - - - -
 
Date/Time
EST
Temp

°C
Wind Pressure Rain
since 9am
mm
Weather Cloud Vis
km
Sea
Height
m
Swell
Dir
 
Speed
knots
Gust
knots
hPa Trend Height
m
Period
s
Dir
28/11:30pm 12.2 - - - 1011.8 - 0.0 - - - - - - -
28/11:00pm 12.4 - - - 1011.5 - 0.0 - - - - - - -
28/10:30pm 12.6 - - - 1011.0 - 0.0 - - - - - - -
28/10:00pm 13.0 - - - 1010.7 - 0.0 - - - - - - -
28/09:30pm 12.8 - - - 1010.7 - 0.0 - - - - - - -
28/09:00pm 12.8 - - - 1010.5 - 0.0 - - - - - - -
28/08:30pm 13.1 - - - 1010.3 - 0.0 - - - - - - -
28/08:00pm 13.4 - - - 1010.0 - 0.0 - - - - - - -
28/07:30pm 14.0 - - - 1009.7 - 0.0 - - - - - - -
28/07:00pm 14.3 - - - 1009.5 - 0.0 - - - - - - -
28/06:30pm 15.1 - - - 1008.7 - 0.0 - - - - - - -
28/06:00pm 15.2 - - - 1008.4 - 0.0 - - - - - - -
28/05:30pm 15.0 - - - 1007.9 - 0.0 - - - - - - -
28/05:00pm 14.8 - - - 1007.1 - 0.0 - - - - - - -
28/04:30pm 14.9 - - - 1007.0 - 0.0 - - - - - - -
28/04:00pm 15.0 - - - 1006.6 - 0.0 - - - - - - -
28/03:30pm 15.0 - - - 1006.4 - 0.0 - - - - - - -
28/03:00pm 14.6 - - - 1006.0 - 0.0 - - - - - - -
28/02:30pm 14.3 - - - 1005.5 - 0.0 - - - - - - -
28/02:00pm 13.9 - - - 1005.2 - 0.0 - - - - - - -
28/01:30pm 13.5 - - - 1005.0 - 0.0 - - - - - - -
28/01:00pm 12.6 - - - 1005.1 - 0.0 - - - - - - -
28/12:30pm 12.9 - - - 1005.2 - 0.0 - - - - - - -
28/12:00pm 12.9 - - - 1005.4 - 0.0 - - - - - - -
28/11:30am 13.4 - - - 1005.7 - 0.0 - - - - - - -
28/11:00am 13.3 - - - 1006.1 - 0.0 - - - - - - -
28/10:30am 13.4 - - - 1006.2 - 0.0 - - - - - - -

Other Formats:

Comma delimited format used in spreadsheet applications
http://www.bom.gov.au/fwo/IDN60701/IDN60701.95940.axf

JavaScript Object Notation format (JSON) in row-major order
http://www.bom.gov.au/fwo/IDN60701/IDN60701.95940.json